sat.trackr.live / text

‹ back to catalog

AC1-001

NORAD 66744 · 2025-276CG

PAYLOAD ACTIVE UNKNOWN

§ Identity

Operator
Country
UK
Launch date
2025-11-28
Launch site
AFWTR
Launch vehicle
Mass (kg)
RCS (m²)

External: N2YO · Heavens-Above · Gunter

§ Orbital elements

Epoch: 2026-09-19T22:19:08.905152Z

Period
94.82 min
Inclination
97.4122°
Eccentricity
0.0003967
Mean motion
15.18685742 rev/d
Perigee alt
507.1 km
Apogee alt
512.5 km
Semi-major
6,887.9 km
B*
7.1392e-5
RAAN
334.4572°
Arg perigee
53.0763°
Mean anomaly
307.0834°
Rev number
4,478

§ Raw data

AC1-0011 66744U 25276CG  26262.92996418  .00001413  00000+0  71392-4 0  99992 66744  97.4122 334.4572 0003967  53.0763 307.0834 15.18685742 44786

JSON: /api/v1/satellites/66744 · /tle

For live sub-satellite position, see the globe view (requires WebGL).

§ Visibility from observer

Set your observer location to see the next 7 days of passes ≥ 10°. The values pass through the URL so the page stays shareable.

No JS? Fill the form by hand. The geolocation button needs JavaScript.